[[{"header":{"parameterUnit":"m.s-1","parameterCategory":2,"la1":30.2991,"la2":30.254,"lo1":-89.0895,"lo2":-89.0444,"dy":0.0017,"dx":0.0017,"nx":28,"ny":28,"refTime":"2025-04-19T09:00:00:Z","depth":"0","parameterNumber":2,"parameterNumberName":"U-component_of_CURRENTS"},"data":[0,0,0,0,0,0,0,0,0,0,0,0,0,0,0,0,0,0,0,0,0,0,0,0,0,0,0,0,0,0,0,0,0,0,0,0,0,0,0,0,0,0,0,0,0,0,0,0,0,0,0,0,0,0,0,0,0,0,0.1551,0.1551,0,0.1531,0.1531,0.153,0.1504,0.1503,0.1503,0.1503,0.1486,0.1486,0.1486,0,0,0,0,0,0,0,0,0,0,0,0,0,0.1597,0.1596,0.1551,0.1551,0.1551,0.1531,0.1531,0.153,0.1504,0.1503,0.1503,0.1503,0.1486,0.1486,0.1486,0,0,0,0,0,0,0,0,0,0,0,0,0,0.1576,0.1596,0.1551,0.1536,0.1535,0.1531,0.1531,0.153,0.1504,0.1503,0.1503,0.1502,0.1486,0.1486,0.1486,0.1493,0,0,0.1485,0.1485,0,0,0,0,0,0,0,0,0.1577,0.1574,0.1538,0.1537,0.1536,0.1521,0.1541,0.1519,0.1504,0.1514,0.1503,0.1502,0.15,0.1498,0.1493,0.1492,0.1492,0.1485,0.1485,0.1485,0.1485,0,0,0,0,0,0,0,0.1578,0.1575,0.1541,0.1538,0.1537,0.1542,0.1538,0.1537,0.1508,0.1513,0.1511,0.1512,0.1499,0.1493,0.1492,0.1491,0.1485,0.1485,0.1485,0.1485,0.1547,0.1549,0,0,0,0,0,0,0.1583,0.1576,0.1542,0.1541,0.1558,0.1541,0.1537,0.1525,0.1508,0.1505,0.1512,0.1511,0.1494,0.1493,0.1492,0.1551,0.1485,0.1485,0.1485,0.1545,0.1547,0.1549,0,0,0,0,0,0,0.1584,0.1579,0.1543,0.156,0.1556,0.1541,0.1528,0.1525,0.1526,0.1508,0.1505,0.1518,0.1494,0.1492,0.1505,0.1548,0.1485,0.1484,0.1543,0.1546,0.1548,0.1636,0,0,0,0,0,0,0.1585,0.158,0.1575,0.156,0.1555,0.1558,0.1528,0.1525,0.1528,0.1525,0.1512,0.1509,0.1493,0.1506,0.1505,0.1546,0.1484,0.1541,0.1544,0.1548,0.1631,0.1641,0.165,0,0,0,0,0,0.1586,0.1579,0.1574,0.157,0.1547,0.156,0.1558,0.1545,0.1529,0.1542,0.153,0.151,0.1527,0.1507,0.1506,0.1548,0.1539,0.1543,0.1547,0.1626,0.1639,0.165,0,0,0,0,0,0,0.1586,0.1575,0.157,0.1555,0.1568,0.1556,0.156,0.1554,0.1553,0.1546,0.1526,0.1524,0.1557,0.1538,0.1516,0.1577,0.1533,0.1537,0.1594,0.1606,0.1615,0.1615,0.1484,0,0,0,0,0,0.1587,0.1582,0.1582,0.1573,0.158,0.1573,0.1575,0.157,0.1567,0.1565,0.1558,0.1555,0.1572,0.1576,0.1582,0.1607,0.1601,0.1636,0.1645,0.1654,0.1654,0.1693,0.1706,0.1563,0.1563,0.1563,0,0,0.1581,0.1578,0.1571,0.1575,0.1576,0.1595,0.1573,0.1582,0.1602,0.1564,0.1586,0.159,0.1588,0.1623,0.1636,0.1611,0.1693,0.1659,0.1666,0.1661,0.1698,0.1712,0.1725,0.1565,0.1565,0.1565,0,0,0.1582,0.1569,0.1576,0.1593,0.1608,0.161,0.1619,0.1622,0.163,0.1654,0.1643,0.1669,0.1677,0.1694,0.1702,0.1768,0.1747,0.1774,0.182,0.1858,0.187,0.1881,0.1896,0.1908,0.1775,0.1775,0.1776,0,0.1579,0.1583,0.1583,0.1607,0.1622,0.1623,0.1647,0.1661,0.167,0.1688,0.1672,0.1717,0.1715,0.1772,0.1797,0.1792,0.1798,0.1775,0.1872,0.1882,0.1891,0.1904,0.1915,0.178,0.178,0.1779,0.1779,0,0.1596,0.1606,0.1614,0.1643,0.1664,0.1684,0.1709,0.1733,0.1739,0.1755,0.1811,0.1815,0.184,0.1858,0.1845,0.192,0.1899,0.1884,0.1841,0.1911,0.192,0.193,0.1787,0.1785,0.1784,0.1783,0,0,0.1574,0.1617,0.1622,0.1645,0.1685,0.1703,0.175,0.1796,0.1824,0.1855,0.1899,0.1947,0.1949,0.1958,0.196,0.1993,0.2068,0.1967,0.1967,0.1981,0.2143,0.206,0.2062,0.2072,0.2074,0.2076,0.2125,0,0.1591,0.1633,0.1656,0.1703,0.1727,0.1758,0.1802,0.1846,0.1875,0.1918,0.1956,0.1992,0.199,0.2,0.2045,0.2055,0.2097,0.2055,0.2074,0.2074,0.1991,0.2073,0.1983,0.2014,0.2134,0.2136,0.2137,0,0.1606,0.1634,0.1674,0.1733,0.1748,0.1775,0.184,0.1881,0.1949,0.1972,0.2026,0.2045,0.2109,0.2086,0.2165,0.2138,0.2154,0.2161,0.2163,0.2058,0.201,0.1963,0.2027,0.194,0.2152,0.2151,0.215,0,0.1588,0.1649,0.1678,0.1698,0.1762,0.1788,0.1825,0.1891,0.1921,0.1998,0.202,0.2103,0.2126,0.2179,0.2201,0.219,0.2269,0.2252,0.2199,0.2193,0.2104,0.2086,0.2081,0.2321,0.2321,0.2321,0.2321,0,0.1593,0.1618,0.1666,0.1681,0.1718,0.1774,0.1813,0.1864,0.1924,0.1962,0.2037,0.2068,0.2151,0.2201,0.2226,0.2239,0.2296,0.2221,0.221,0.2131,0.2115,0.2021,0.1971,0.2323,0.2322,0.2322,0.2322,0,0.156,0.1593,0.1625,0.1686,0.1702,0.1724,0.1779,0.1809,0.1876,0.1925,0.1948,0.2046,0.2104,0.2174,0.2246,0.2249,0.2191,0.2268,0.2156,0.2129,0.197,0.1928,0.1851,0.1778,0.2217,0.2216,0.2214,0,0.1545,0.1557,0.1603,0.1615,0.1634,0.167,0.1693,0.1764,0.1795,0.19,0.1919,0.1999,0.2036,0.211,0.214,0.2178,0.2117,0.211,0.2073,0.1958,0.1905,0.184,0.1781,0.1999,0.1996,0.1994,0.1992,0,0.1523,0.1531,0.1555,0.1574,0.159,0.1604,0.1645,0.1653,0.1745,0.178,0.1834,0.187,0.1953,0.1949,0.2002,0.2016,0.1964,0.2057,0.1986,0.1771,0.1656,0.158,0.1956,0.197,0.1972,0.1974,0.1975,0.1976,0.1505,0.1506,0.1537,0.1542,0.1554,0.1545,0.1527,0.1568,0.1584,0.1625,0.1708,0.172,0.1784,0.1831,0.1843,0.178,0.1782,0.1719,0.1691,0.1648,0.1528,0.1835,0.1798,0.1799,0.18,0.1801,0.1802,0,0.1505,0.1509,0.1513,0.1514,0.1488,0.1506,0.1503,0.1465,0.1445,0.1495,0.1514,0.1524,0.1511,0.1563,0.1545,0.1454,0.141,0.1378,0.1286,0.1257,0.1581,0.1519,0.1361,0.1361,0.1361,0.1361,0.1361,0.1361,0.1516,0.1514,0.1503,0.1455,0.1436,0.1368,0.1337,0.1285,0.1287,0.1243,0.1233,0.1262,0.1322,0.1309,0.1226,0.1177,0.1056,0.0973,0.0963,0.1203,0.1233,0.1262,0.1194,0.097,0.097,0.0604,0.0601,0.0598]},{"header":{"parameterUnit":"m.s-1","parameterCategory":2,"la1":30.2991,"la2":30.254,"lo1":-89.0895,"lo2":-89.0444,"dy":0.0017,"dx":0.0017,"nx":28,"ny":28,"refTime":"2025-04-19T09:00:00:Z","depth":"0","parameterNumber":3,"parameterNumberName":"V-component_of_CURRENTS"},"data":[0,0,0,0,0,0,0,0,0,0,0,0,0,0,0,0,0,0,0,0,0,0,0,0,0,0,0,0,0,0,0,0,0,0,0,0,0,0,0,0,0,0,0,0,0,0,0,0,0,0,0,0,0,0,0,0,0,0,-0.0045,-0.0046,0,-0.0072,-0.0072,-0.0072,-0.008,-0.008,-0.008,-0.008,-0.0108,-0.0109,-0.011,0,0,0,0,0,0,0,0,0,0,0,0,0,0.0011,0.001,-0.0045,-0.0046,-0.0046,-0.0072,-0.0072,-0.0072,-0.008,-0.008,-0.008,-0.008,-0.0108,-0.0109,-0.011,0,0,0,0,0,0,0,0,0,0,0,0,0,-0.0013,0.0009,-0.0045,-0.0054,-0.0055,-0.0072,-0.0072,-0.0072,-0.008,-0.008,-0.008,-0.008,-0.0108,-0.0109,-0.011,-0.0117,0,0,-0.0113,-0.0114,0,0,0,0,0,0,0,0,-0.0012,-0.0015,-0.0052,-0.0054,-0.0055,-0.0074,-0.0063,-0.0088,-0.008,-0.0069,-0.008,-0.008,-0.0098,-0.01,-0.0103,-0.0118,-0.0119,-0.0113,-0.0114,-0.0114,-0.0115,0,0,0,0,0,0,0,-0.001,-0.0014,-0.0054,-0.0053,-0.0055,-0.0053,-0.0056,-0.0067,-0.0082,-0.007,-0.0071,-0.0076,-0.0098,-0.0101,-0.0103,-0.012,-0.0113,-0.0114,-0.0115,-0.0115,-0.0141,-0.0141,0,0,0,0,0,0,-0.0011,-0.0013,-0.0053,-0.0055,-0.0035,-0.0054,-0.0058,-0.0067,-0.0082,-0.0085,-0.0076,-0.0077,-0.0099,-0.0102,-0.0104,-0.0109,-0.0114,-0.0115,-0.0116,-0.0141,-0.0141,-0.0141,0,0,0,0,0,0,-0.0009,-0.0014,-0.0052,-0.0035,-0.004,-0.0055,-0.0065,-0.0067,-0.007,-0.0087,-0.0089,-0.0077,-0.01,-0.0103,-0.0108,-0.0111,-0.0116,-0.0117,-0.0141,-0.0141,-0.0141,-0.0122,0,0,0,0,0,0,-0.0008,-0.0014,-0.0017,-0.0035,-0.0041,-0.0055,-0.0065,-0.0068,-0.0074,-0.0074,-0.0088,-0.0091,-0.01,-0.0106,-0.0109,-0.0112,-0.0118,-0.0141,-0.0141,-0.0141,-0.0123,-0.0121,-0.012,0,0,0,0,0,-0.0006,-0.001,-0.0017,-0.0021,-0.0046,-0.0055,-0.0058,-0.0067,-0.0073,-0.007,-0.0079,-0.009,-0.0108,-0.0106,-0.011,-0.0114,-0.0141,-0.0141,-0.0141,-0.0123,-0.0122,-0.012,0,0,0,0,0,0,0.0016,-0.0012,-0.002,-0.0032,-0.004,-0.0057,-0.0057,-0.0066,-0.0071,-0.0073,-0.0087,-0.009,-0.0098,-0.0107,-0.0105,-0.0122,-0.0128,-0.0129,-0.0113,-0.0112,-0.0111,-0.0104,-0.0119,0,0,0,0,0,0.0017,0.0005,-0.0015,-0.0022,-0.0027,-0.0042,-0.0047,-0.0054,-0.0064,-0.0067,-0.0076,-0.0089,-0.0101,-0.0106,-0.0117,-0.0124,-0.013,-0.013,-0.0129,-0.0128,-0.0124,-0.0139,-0.0138,-0.0142,-0.0142,-0.0142,0,0,0.0023,0.0007,0.0001,-0.0018,-0.0026,-0.0027,-0.0044,-0.0051,-0.005,-0.007,-0.0068,-0.0084,-0.0102,-0.0109,-0.0114,-0.0117,-0.0129,-0.0128,-0.0127,-0.0124,-0.0139,-0.0138,-0.0138,-0.0142,-0.0142,-0.0142,0,0,0.0034,0.0016,0.0013,0.0006,-0.0008,-0.0017,-0.0018,-0.0033,-0.0038,-0.0041,-0.0058,-0.0074,-0.0085,-0.0102,-0.0111,-0.011,-0.0122,-0.0116,-0.0105,-0.0119,-0.0118,-0.0118,-0.0118,-0.0118,-0.0116,-0.0116,-0.0116,0,0.0045,0.0036,0.0014,0.0013,0.0012,-0.001,-0.0004,-0.0013,-0.0027,-0.0029,-0.0036,-0.0063,-0.0082,-0.0097,-0.01,-0.0108,-0.0111,-0.0108,-0.0117,-0.0117,-0.0117,-0.0117,-0.0117,-0.0115,-0.0115,-0.0115,-0.0115,0,0.0055,0.005,0.005,0.0041,0.0039,0.0039,0.0024,0.0022,0.0012,-0.0,-0.0014,-0.004,-0.0055,-0.007,-0.0086,-0.0101,-0.01,-0.0113,-0.0119,-0.0115,-0.0115,-0.0116,-0.0113,-0.0114,-0.0114,-0.0114,0,0,0.0075,0.0059,0.0061,0.0068,0.0054,0.0058,0.0056,0.0051,0.0059,0.0032,0.004,-0.0004,-0.0024,-0.0036,-0.0063,-0.0083,-0.0093,-0.0098,-0.0099,-0.0094,-0.0111,-0.0091,-0.0089,-0.0106,-0.0107,-0.0107,-0.0107,0,0.0094,0.0102,0.0087,0.0107,0.0113,0.0098,0.0106,0.0098,0.0087,0.009,0.0046,0.004,-0.0009,-0.0014,-0.0044,-0.0072,-0.0095,-0.0091,-0.0117,-0.0118,-0.0098,-0.009,-0.0038,-0.0032,-0.0108,-0.0108,-0.0108,0,0.0114,0.0117,0.0135,0.0147,0.0151,0.0161,0.0176,0.0176,0.0162,0.0154,0.0126,0.0099,0.0064,0.0025,-0.0033,-0.0026,-0.0071,-0.01,-0.0101,-0.0089,-0.0099,-0.005,-0.003,-0.0071,-0.0109,-0.0109,-0.0109,0,0.015,0.0155,0.0174,0.0176,0.0183,0.0197,0.0201,0.0197,0.0211,0.0191,0.021,0.0152,0.0148,0.0077,0.0008,-0.0011,-0.0043,-0.0076,-0.0103,-0.0101,-0.0066,-0.006,-0.0086,-0.0126,-0.0126,-0.0126,-0.0126,0,0.0177,0.0196,0.0195,0.0207,0.0245,0.0234,0.0271,0.0265,0.0275,0.031,0.0245,0.027,0.016,0.0129,0.0043,-0.0016,-0.0019,-0.0094,-0.01,-0.0056,-0.0051,-0.0092,-0.0138,-0.0126,-0.0126,-0.0126,-0.0126,0,0.0216,0.021,0.0238,0.0252,0.0263,0.029,0.0323,0.0352,0.0349,0.0398,0.0399,0.0368,0.0329,0.0227,0.0132,0.005,-0.0051,-0.0052,0.0015,0.0017,-0.0054,-0.0101,-0.0163,-0.0211,-0.008,-0.0079,-0.0079,0,0.0236,0.0252,0.0279,0.0307,0.0317,0.0352,0.0385,0.0387,0.0425,0.0469,0.0509,0.0485,0.0486,0.036,0.0216,0.0085,-0.0013,0.003,-0.0011,-0.0042,-0.01,-0.0153,-0.0194,0.0047,0.0049,0.005,0.0051,0,0.0281,0.0288,0.0311,0.0368,0.0408,0.045,0.0497,0.0539,0.0563,0.0613,0.0678,0.0683,0.0581,0.0486,0.0305,0.0199,0.0004,0.005,-0.0002,-0.0016,-0.0056,-0.0109,0.0037,0.0061,0.006,0.0059,0.0059,0.0058,0.0324,0.0347,0.0382,0.0438,0.0483,0.0548,0.0586,0.0649,0.0721,0.08,0.0808,0.0844,0.0716,0.0484,0.0338,0.0133,0.0068,0.0067,0.001,-0.0042,-0.0084,0.0091,0.0116,0.0115,0.0115,0.0114,0.0114,0,0.0382,0.0407,0.0456,0.0515,0.0568,0.0584,0.0664,0.0702,0.0793,0.0892,0.0945,0.0936,0.0779,0.0572,0.0306,0.0139,0.0028,0.0042,-0.0017,-0.0064,0.0094,0.0107,0.0156,0.0156,0.0156,0.0156,0.0156,0.0156,0.042,0.0467,0.0483,0.0576,0.062,0.0676,0.0717,0.0782,0.0856,0.0967,0.1025,0.1049,0.0939,0.0494,0.0184,0.0091,-0.0067,-0.0077,-0.0193,-0.0063,-0.0065,-0.0067,-0.0065,-0.0053,-0.0053,-0.0315,-0.0318,-0.032]}],[{"header":{"parameterUnit":"m.s-1","parameterCategory":2,"la1":30.2991,"la2":30.254,"lo1":-89.0895,"lo2":-89.0444,"dy":0.0017,"dx":0.0017,"nx":28,"ny":28,"refTime":"2025-04-19T09:00:00:Z","depth":"2","parameterNumber":2,"parameterNumberName":"U-component_of_CURRENTS"},"data":[0,0,0,0,0,0,0,0,0,0,0,0,0,0,0,0,0,0,0,0,0,0,0,0,0,0,0,0,0,0,0,0,0,0,0,0,0,0,0,0,0,0,0,0,0,0,0,0,0,0,0,0,0,0,0,0,0,0,0.1596,0.1596,0,0.1578,0.1578,0.1577,0.1551,0.1551,0.155,0.155,0.1536,0.1536,0.1536,0,0,0,0,0,0,0,0,0,0,0,0,0,0.1638,0.1637,0.1596,0.1596,0.1596,0.1578,0.1578,0.1577,0.1551,0.155,0.155,0.155,0.1536,0.1536,0.1536,0,0,0,0,0,0,0,0,0,0,0,0,0,0.1618,0.1636,0.1596,0.1582,0.1581,0.1578,0.1578,0.1577,0.1551,0.155,0.155,0.155,0.1536,0.1536,0.1536,0.1544,0,0,0.1535,0.1535,0,0,0,0,0,0,0,0,0.1619,0.1616,0.1584,0.1583,0.1582,0.1568,0.1587,0.1567,0.1551,0.1561,0.155,0.1549,0.1548,0.1547,0.1542,0.1544,0.1543,0.1535,0.1535,0.1535,0.1535,0,0,0,0,0,0,0,0.162,0.1617,0.1587,0.1584,0.1583,0.1587,0.1583,0.1583,0.1556,0.156,0.1558,0.1559,0.1547,0.1543,0.1542,0.1543,0.1535,0.1535,0.1535,0.1535,0.16,0.1602,0,0,0,0,0,0,0.1625,0.1618,0.1588,0.1587,0.1601,0.1586,0.1582,0.1571,0.1556,0.1554,0.1559,0.1558,0.1543,0.1542,0.1541,0.1602,0.1535,0.1535,0.1535,0.1599,0.1601,0.1603,0,0,0,0,0,0,0.1625,0.1622,0.1589,0.1604,0.1601,0.1586,0.1574,0.1571,0.1573,0.1556,0.1553,0.1565,0.1543,0.1542,0.1556,0.1599,0.1535,0.1535,0.1597,0.1599,0.1602,0.1691,0,0,0,0,0,0,0.1626,0.1622,0.1618,0.1604,0.16,0.1605,0.1575,0.1571,0.1575,0.1573,0.156,0.1558,0.1542,0.1556,0.1556,0.1598,0.1535,0.1594,0.1598,0.1601,0.1686,0.1696,0.1705,0,0,0,0,0,0.1628,0.1621,0.1617,0.1614,0.1593,0.1607,0.1606,0.1592,0.1576,0.1589,0.1578,0.1559,0.1578,0.1557,0.1556,0.16,0.1593,0.1597,0.1601,0.1681,0.1694,0.1705,0,0,0,0,0,0,0.1628,0.1618,0.1613,0.1601,0.1614,0.1603,0.1607,0.1601,0.1601,0.1594,0.1575,0.1573,0.1608,0.1589,0.1567,0.1629,0.1585,0.1589,0.1647,0.1659,0.1669,0.1668,0.1535,0,0,0,0,0,0.1629,0.1625,0.1626,0.1619,0.1626,0.162,0.1622,0.1618,0.1615,0.1613,0.1607,0.1605,0.1623,0.1627,0.1634,0.166,0.1654,0.169,0.17,0.1708,0.1708,0.1747,0.1761,0.1616,0.1616,0.1616,0,0,0.1623,0.1621,0.1615,0.1621,0.1622,0.1643,0.162,0.1629,0.1651,0.1613,0.1636,0.164,0.1639,0.1676,0.169,0.1664,0.1748,0.1714,0.1721,0.1716,0.1753,0.1767,0.1779,0.1619,0.1618,0.1618,0,0,0.1626,0.1615,0.1622,0.1639,0.1655,0.1658,0.1667,0.1671,0.168,0.1704,0.1693,0.1721,0.173,0.1748,0.1756,0.1823,0.1802,0.183,0.1876,0.1915,0.1927,0.1937,0.1952,0.1963,0.1831,0.1831,0.1831,0,0.1623,0.1629,0.1629,0.1653,0.1669,0.1671,0.1696,0.1711,0.1721,0.1739,0.1723,0.177,0.1769,0.1828,0.1852,0.1848,0.1854,0.1831,0.1928,0.1938,0.1947,0.196,0.1971,0.1836,0.1835,0.1835,0.1834,0,0.1642,0.1653,0.1662,0.1691,0.1713,0.1734,0.176,0.1785,0.1792,0.1808,0.1865,0.1871,0.1896,0.1915,0.1901,0.1978,0.1956,0.194,0.1897,0.1967,0.1976,0.1986,0.1843,0.1841,0.184,0.1838,0,0,0.1619,0.1664,0.167,0.1693,0.1735,0.1753,0.1802,0.185,0.1879,0.1911,0.1955,0.2005,0.2007,0.2016,0.2018,0.2051,0.2126,0.2025,0.2024,0.2038,0.22,0.211,0.2112,0.213,0.2132,0.2134,0.2181,0,0.1637,0.1681,0.1705,0.1754,0.1779,0.1811,0.1856,0.1901,0.1932,0.1975,0.2014,0.205,0.2048,0.2058,0.2103,0.2113,0.2155,0.2113,0.213,0.213,0.2042,0.2122,0.1933,0.1953,0.2191,0.2192,0.2193,0,0.1653,0.1682,0.1723,0.1785,0.18,0.1828,0.1894,0.1937,0.2006,0.203,0.2085,0.2104,0.2168,0.2145,0.2224,0.2196,0.2211,0.2218,0.222,0.2108,0.2059,0.1921,0.1961,0.2209,0.2208,0.2207,0.2206,0,0.1634,0.1698,0.1728,0.1748,0.1815,0.1841,0.1879,0.1947,0.1978,0.2055,0.2077,0.2162,0.2184,0.2238,0.2257,0.2247,0.2325,0.2309,0.225,0.2242,0.2069,0.2042,0.2378,0.2378,0.2378,0.2378,0.2378,0,0.1639,0.1665,0.1716,0.1731,0.1769,0.1827,0.1866,0.1918,0.1979,0.2018,0.2094,0.2124,0.2209,0.2257,0.2283,0.229,0.2351,0.227,0.2258,0.2093,0.207,0.2274,0.2261,0.2379,0.2379,0.2379,0.2378,0,0.1605,0.164,0.1673,0.1736,0.1753,0.1775,0.1831,0.1862,0.193,0.1979,0.2002,0.21,0.2155,0.2225,0.2296,0.2298,0.2324,0.2313,0.2101,0.2063,0.2211,0.2202,0.2259,0.2256,0.2254,0.2252,0.2251,0,0.159,0.1602,0.1651,0.1663,0.1683,0.172,0.1744,0.1816,0.1847,0.1952,0.1971,0.2048,0.208,0.2149,0.2159,0.2191,0.2265,0.204,0.199,0.2221,0.2204,0.2199,0.2193,0.18,0.1795,0.1791,0.1788,0,0.1567,0.1576,0.1601,0.1621,0.1638,0.1653,0.1695,0.1703,0.1796,0.183,0.1882,0.1913,0.1974,0.1912,0.1952,0.1947,0.2019,0.1954,0.2269,0.1852,0.1791,0.1773,0.1783,0.1751,0.1754,0.1757,0.1759,0.1761,0.1549,0.155,0.1582,0.1589,0.1601,0.1593,0.1575,0.1619,0.1635,0.1672,0.1739,0.1725,0.1755,0.1702,0.1664,0.1648,0.1795,0.1734,0.1747,0.1764,0.1695,0.1632,0.1549,0.1551,0.1554,0.1555,0.1557,0,0.1548,0.1552,0.1558,0.1561,0.154,0.1554,0.1551,0.1527,0.1509,0.1534,0.1537,0.1401,0.1343,0.1384,0.13,0.1314,0.1302,0.1262,0.1236,0.1273,0.1306,0.1214,0.094,0.0938,0.0937,0.0935,0,0,0.1559,0.1559,0.1549,0.1508,0.1489,0.1438,0.1407,0.1366,0.1362,0.1294,0.1243,0.1288,0.1343,0.1126,0.1097,0.101,0.1134,0.0963,0.1457,0.1463,0.1494,0.1576,0.1475,0,0,0,0,0]},{"header":{"parameterUnit":"m.s-1","parameterCategory":2,"la1":30.2991,"la2":30.254,"lo1":-89.0895,"lo2":-89.0444,"dy":0.0017,"dx":0.0017,"nx":28,"ny":28,"refTime":"2025-04-19T09:00:00:Z","depth":"2","parameterNumber":3,"parameterNumberName":"V-component_of_CURRENTS"},"data":[0,0,0,0,0,0,0,0,0,0,0,0,0,0,0,0,0,0,0,0,0,0,0,0,0,0,0,0,0,0,0,0,0,0,0,0,0,0,0,0,0,0,0,0,0,0,0,0,0,0,0,0,0,0,0,0,0,0,-0.009,-0.009,0,-0.0116,-0.0117,-0.0117,-0.0125,-0.0125,-0.0125,-0.0125,-0.0151,-0.0152,-0.0153,0,0,0,0,0,0,0,0,0,0,0,0,0,-0.0036,-0.0037,-0.009,-0.009,-0.0091,-0.0116,-0.0117,-0.0117,-0.0125,-0.0125,-0.0125,-0.0125,-0.0151,-0.0152,-0.0153,0,0,0,0,0,0,0,0,0,0,0,0,0,-0.0059,-0.0037,-0.009,-0.0099,-0.01,-0.0116,-0.0117,-0.0117,-0.0125,-0.0125,-0.0125,-0.0125,-0.0151,-0.0152,-0.0153,-0.016,0,0,-0.0156,-0.0157,0,0,0,0,0,0,0,0,-0.0058,-0.0061,-0.0097,-0.0098,-0.0099,-0.0118,-0.0108,-0.0132,-0.0125,-0.0114,-0.0125,-0.0125,-0.0141,-0.0143,-0.0146,-0.0162,-0.0163,-0.0156,-0.0157,-0.0158,-0.0158,0,0,0,0,0,0,0,-0.0056,-0.006,-0.0099,-0.0097,-0.0099,-0.0098,-0.0101,-0.0112,-0.0126,-0.0115,-0.0116,-0.0121,-0.0142,-0.0145,-0.0147,-0.0163,-0.0156,-0.0157,-0.0158,-0.0158,-0.0183,-0.0183,0,0,0,0,0,0,-0.0057,-0.0059,-0.0098,-0.01,-0.008,-0.0099,-0.0103,-0.0111,-0.0126,-0.0129,-0.0121,-0.0121,-0.0143,-0.0146,-0.0148,-0.0151,-0.0158,-0.0159,-0.0159,-0.0183,-0.0183,-0.0183,0,0,0,0,0,0,-0.0055,-0.006,-0.0097,-0.0081,-0.0085,-0.01,-0.011,-0.0112,-0.0114,-0.0131,-0.0133,-0.0121,-0.0143,-0.0146,-0.0151,-0.0153,-0.0159,-0.016,-0.0183,-0.0183,-0.0183,-0.0162,0,0,0,0,0,0,-0.0054,-0.0059,-0.0062,-0.0081,-0.0086,-0.01,-0.011,-0.0112,-0.0118,-0.0118,-0.0132,-0.0134,-0.0144,-0.0149,-0.0152,-0.0154,-0.0161,-0.0183,-0.0183,-0.0183,-0.0163,-0.0161,-0.016,0,0,0,0,0,-0.0052,-0.0055,-0.0062,-0.0066,-0.0091,-0.01,-0.0102,-0.0112,-0.0118,-0.0114,-0.0123,-0.0134,-0.0151,-0.015,-0.0153,-0.0156,-0.0183,-0.0183,-0.0183,-0.0163,-0.0162,-0.016,0,0,0,0,0,0,-0.0029,-0.0057,-0.0065,-0.0076,-0.0084,-0.0101,-0.0101,-0.011,-0.0115,-0.0116,-0.0131,-0.0134,-0.014,-0.015,-0.0148,-0.0163,-0.017,-0.0171,-0.0154,-0.0153,-0.0151,-0.0144,-0.0162,0,0,0,0,0,-0.0027,-0.0039,-0.0059,-0.0065,-0.007,-0.0085,-0.009,-0.0098,-0.0108,-0.011,-0.0119,-0.0132,-0.0143,-0.0148,-0.0159,-0.0165,-0.0172,-0.017,-0.0169,-0.0168,-0.0164,-0.0178,-0.0177,-0.0183,-0.0183,-0.0183,0,0,-0.002,-0.0037,-0.0043,-0.0061,-0.007,-0.007,-0.0087,-0.0093,-0.0092,-0.0112,-0.0111,-0.0126,-0.0144,-0.015,-0.0155,-0.0158,-0.0168,-0.0168,-0.0167,-0.0164,-0.0178,-0.0177,-0.0176,-0.0183,-0.0183,-0.0183,0,0,-0.0008,-0.0026,-0.0029,-0.0036,-0.005,-0.0058,-0.0059,-0.0074,-0.0079,-0.0081,-0.0099,-0.0114,-0.0125,-0.0141,-0.0151,-0.0149,-0.016,-0.0154,-0.0142,-0.0155,-0.0154,-0.0154,-0.0154,-0.0153,-0.0154,-0.0154,-0.0154,0,0.0003,-0.0006,-0.0028,-0.0029,-0.0029,-0.0051,-0.0044,-0.0053,-0.0066,-0.0069,-0.0076,-0.0102,-0.0121,-0.0135,-0.0138,-0.0146,-0.0149,-0.0146,-0.0153,-0.0153,-0.0153,-0.0152,-0.0152,-0.0153,-0.0153,-0.0153,-0.0153,0,0.0014,0.001,0.001,0.0002,0.0,0.0001,-0.0014,-0.0016,-0.0025,-0.0038,-0.005,-0.0077,-0.0091,-0.0106,-0.0122,-0.0136,-0.0136,-0.0149,-0.0155,-0.0151,-0.0151,-0.0151,-0.0151,-0.0152,-0.0152,-0.0152,0,0,0.0036,0.002,0.0022,0.003,0.0016,0.002,0.002,0.0016,0.0024,-0.0003,0.0007,-0.0037,-0.0057,-0.007,-0.0097,-0.0116,-0.0125,-0.0132,-0.0133,-0.0128,-0.0141,-0.0125,-0.0124,-0.0138,-0.0139,-0.0139,-0.0138,0,0.0056,0.0064,0.005,0.0071,0.0078,0.0063,0.0073,0.0064,0.0054,0.0057,0.0014,0.0008,-0.0042,-0.0046,-0.0076,-0.0104,-0.0126,-0.0123,-0.0149,-0.015,-0.0134,-0.0124,-0.0132,-0.0131,-0.0138,-0.0138,-0.0139,0,0.0077,0.008,0.01,0.0113,0.0117,0.0128,0.0144,0.0144,0.0131,0.0123,0.0096,0.0069,0.0034,-0.0005,-0.0062,-0.0055,-0.01,-0.013,-0.0131,-0.0123,-0.0135,-0.0139,-0.0131,-0.0139,-0.0139,-0.0139,-0.0139,0,0.0114,0.0121,0.0141,0.0143,0.0151,0.0165,0.017,0.0166,0.0181,0.0162,0.018,0.0124,0.0119,0.0049,-0.002,-0.0039,-0.0071,-0.0104,-0.0134,-0.0133,-0.0148,-0.0148,-0.0152,-0.0152,-0.0152,-0.0152,-0.0152,0,0.0143,0.0162,0.0162,0.0174,0.0213,0.0202,0.024,0.0235,0.0246,0.0281,0.0215,0.024,0.0132,0.0101,0.0015,-0.0045,-0.0046,-0.0125,-0.0132,-0.014,-0.0139,-0.0157,-0.0158,-0.0152,-0.0152,-0.0152,-0.0152,0,0.0182,0.0176,0.0205,0.022,0.0231,0.0259,0.0292,0.0321,0.0319,0.0369,0.037,0.0338,0.0298,0.0197,0.0103,0.002,-0.0054,-0.0083,-0.0075,-0.0082,-0.0118,-0.0118,-0.0115,-0.0115,-0.0114,-0.0114,-0.0113,0,0.0202,0.0218,0.0246,0.0274,0.0284,0.032,0.0353,0.0357,0.0394,0.0438,0.0477,0.0452,0.0447,0.032,0.0166,0.0032,-0.0009,-0.0067,-0.0118,-0.0108,-0.0115,-0.0115,-0.0115,-0.0129,-0.0129,-0.0129,-0.0128,0,0.0244,0.0252,0.0274,0.0333,0.0373,0.0416,0.0463,0.0505,0.053,0.0575,0.0636,0.0635,0.0523,0.0379,0.0192,0.0092,-0.0048,-0.0067,-0.0057,-0.0132,-0.0119,-0.0127,-0.0127,-0.0127,-0.0127,-0.0127,-0.0127,-0.0127,0.0284,0.0306,0.0341,0.04,0.0446,0.0511,0.0549,0.0591,0.0655,0.068,0.0715,0.067,0.0553,0.0279,0.0152,-0.0013,-0.0008,-0.0101,-0.0103,-0.0104,-0.01,-0.0087,-0.0088,-0.0088,-0.0087,-0.0087,-0.0087,0,0.0333,0.0363,0.0412,0.0474,0.0514,0.0546,0.0625,0.0622,0.0678,0.0681,0.0691,0.054,0.0417,0.0268,0.0036,-0.0074,-0.0106,-0.0128,-0.0151,-0.015,-0.0151,-0.0151,-0.0151,-0.0152,-0.0152,-0.0153,0,0,0.0367,0.0409,0.0425,0.0508,0.056,0.0603,0.0643,0.0636,0.0621,0.0572,0.0526,0.0501,0.0396,0.0208,0.0077,-0.0049,-0.0088,-0.0082,-0.0019,-0.003,-0.003,-0.0121,-0.0119,0,0,0,0,0]}],[{"header":{"parameterUnit":"m.s-1","parameterCategory":2,"la1":30.2991,"la2":30.254,"lo1":-89.0895,"lo2":-89.0444,"dy":0.0017,"dx":0.0017,"nx":28,"ny":28,"refTime":"2025-04-19T09:00:00:Z","depth":"4","parameterNumber":2,"parameterNumberName":"U-component_of_CURRENTS"},"data":[0,0,0,0,0,0,0,0,0,0,0,0,0,0,0,0,0,0,0,0,0,0,0,0,0,0,0,0,0,0,0,0,0,0,0,0,0,0,0,0,0,0,0,0,0,0,0,0,0,0,0,0,0,0,0,0,0,0,0.0995,0.0996,0,0.1029,0.1029,0.1029,0.1064,0.1065,0.1066,0.1066,0.1098,0.1099,0.1099,0,0,0,0,0,0,0,0,0,0,0,0,0,0.0952,0.0953,0.0995,0.0996,0.0996,0.1029,0.1029,0.103,0.1064,0.1065,0.1066,0.1067,0.1098,0.1099,0.1099,0,0,0,0,0,0,0,0,0,0,0,0,0,0.0976,0.0953,0.0995,0.1019,0.1021,0.1029,0.1029,0.103,0.1064,0.1065,0.1066,0.1067,0.1098,0.1099,0.1099,0.1083,0,0,0.11,0.1101,0,0,0,0,0,0,0,0,0.0974,0.0977,0.1015,0.1017,0.102,0.1045,0.1026,0.1048,0.1064,0.1046,0.1066,0.1067,0.1081,0.1083,0.1085,0.1084,0.1086,0.11,0.1101,0.1101,0.1101,0,0,0,0,0,0,0,0.0973,0.0976,0.1007,0.1015,0.1019,0.1025,0.1029,0.103,0.1057,0.1048,0.1051,0.1057,0.1082,0.1084,0.1086,0.1086,0.11,0.1101,0.1101,0.1101,0.1141,0.1142,0,0,0,0,0,0,0.0971,0.0974,0.1006,0.1008,0.1001,0.1025,0.103,0.1035,0.1057,0.1061,0.1056,0.1058,0.1083,0.1085,0.1087,0.1128,0.1101,0.1101,0.1101,0.114,0.1141,0.1142,0,0,0,0,0,0,0.097,0.0973,0.1005,0.0993,0.0998,0.1025,0.103,0.1035,0.1059,0.1063,0.1068,0.1078,0.1084,0.1086,0.1104,0.1127,0.1101,0.1102,0.1139,0.114,0.1141,0.1172,0,0,0,0,0,0,0.0968,0.0973,0.0987,0.0993,0.0999,0.1019,0.103,0.1035,0.106,0.1064,0.1083,0.1086,0.1085,0.1104,0.1105,0.1127,0.1102,0.1138,0.114,0.1141,0.117,0.1174,0.1178,0,0,0,0,0,0.0967,0.0978,0.0987,0.0992,0.1013,0.1019,0.1022,0.1043,0.1061,0.1069,0.1085,0.1086,0.1115,0.1104,0.1106,0.1129,0.1137,0.1139,0.1141,0.1168,0.1173,0.1178,0,0,0,0,0,0,0.097,0.0983,0.0993,0.101,0.1019,0.1026,0.1043,0.1054,0.1073,0.1086,0.109,0.1093,0.1119,0.1117,0.1106,0.1145,0.1129,0.1131,0.1149,0.1154,0.1158,0.1158,0.1102,0,0,0,0,0,0.0975,0.0988,0.0997,0.1013,0.102,0.1035,0.1046,0.1058,0.1071,0.1082,0.1094,0.111,0.1122,0.1134,0.114,0.1157,0.1165,0.1175,0.1179,0.1182,0.1184,0.1223,0.1231,0.1148,0.1148,0.1148,0,0,0.0981,0.0991,0.1,0.1015,0.1028,0.1036,0.1045,0.1065,0.1076,0.1081,0.1109,0.1122,0.1129,0.1151,0.1163,0.1156,0.1209,0.1185,0.1187,0.1187,0.1226,0.1234,0.1242,0.1149,0.1149,0.1149,0,0,0.0987,0.1009,0.1017,0.1025,0.1046,0.1053,0.1063,0.1079,0.1095,0.1116,0.1127,0.1151,0.1171,0.1179,0.1186,0.1213,0.1226,0.1226,0.1249,0.1288,0.1295,0.1302,0.1315,0.1323,0.1231,0.1231,0.1231,0,0.0996,0.1005,0.1021,0.1027,0.1038,0.1062,0.1069,0.1085,0.1106,0.1118,0.1132,0.1176,0.1182,0.1209,0.1223,0.1222,0.1244,0.123,0.1293,0.13,0.1306,0.1319,0.1327,0.1233,0.1233,0.1232,0.1232,0,0.0996,0.1012,0.1019,0.1036,0.1048,0.1061,0.1079,0.11,0.1129,0.1143,0.1185,0.1202,0.123,0.1241,0.1242,0.1291,0.1291,0.1292,0.1282,0.1317,0.1327,0.1335,0.1235,0.1235,0.1234,0.1234,0,0,0.0992,0.1015,0.102,0.1026,0.1054,0.106,0.1087,0.1108,0.1136,0.117,0.1204,0.1236,0.1261,0.1271,0.1286,0.1323,0.138,0.1335,0.1336,0.1348,0.1463,0.1374,0.1374,0.1407,0.1408,0.141,0.1451,0,0.0989,0.1,0.1013,0.1028,0.1034,0.1062,0.1086,0.1113,0.1148,0.1188,0.1223,0.1264,0.1268,0.13,0.1337,0.1376,0.1404,0.1368,0.1428,0.1429,0.1346,0.1381,0.1415,0.1456,0.1458,0.1459,0.146,0,0.0979,0.0989,0.1003,0.1024,0.1032,0.1051,0.1096,0.1121,0.1178,0.1213,0.1262,0.1289,0.1347,0.1351,0.1433,0.1419,0.1441,0.1465,0.1468,0.1378,0.1354,0.1416,0.1474,0.1473,0.1472,0.1471,0.147,0,0.0958,0.0977,0.0991,0.0998,0.1032,0.1051,0.108,0.1133,0.1162,0.1239,0.1276,0.134,0.1395,0.1439,0.1486,0.1474,0.1575,0.1556,0.1487,0.148,0.1535,0.1527,0.1603,0.1603,0.1603,0.1603,0.1602,0,0.0936,0.0945,0.0986,0.0991,0.1015,0.1049,0.1088,0.1131,0.1199,0.1233,0.1296,0.1333,0.1429,0.1484,0.1508,0.1526,0.1591,0.1493,0.149,0.1544,0.1538,0.1539,0.1532,0.1604,0.1604,0.1603,0.1603,0,0.0902,0.0931,0.0945,0.0988,0.1005,0.1027,0.1085,0.1112,0.1193,0.1243,0.1271,0.1362,0.1433,0.1499,0.1583,0.155,0.1574,0.1559,0.1612,0.1611,0.1442,0.1435,0.1471,0.1468,0.1466,0.1464,0.1462,0,0.0882,0.0891,0.0939,0.0952,0.0974,0.1012,0.1038,0.111,0.1135,0.1237,0.1252,0.1349,0.1395,0.144,0.152,0.1557,0.1542,0.1537,0.148,0.1437,0.1431,0.1428,0.1425,0.1459,0.1458,0.1458,0.1457,0,0.0844,0.0876,0.0889,0.0921,0.0947,0.096,0.1,0.101,0.1091,0.1168,0.12,0.1235,0.1315,0.1378,0.1433,0.145,0.1532,0.1512,0.1516,0.1462,0.1423,0.1419,0.1418,0.1449,0.145,0.1451,0.1451,0,0.0821,0.0823,0.0855,0.0868,0.0905,0.09,0.0921,0.0942,0.0976,0.1082,0.1091,0.1194,0.1291,0.1323,0.1366,0.139,0.1359,0.1309,0.1322,0.1332,0.1271,0.12,0.1159,0,0,0,0,0,0.0791,0.0783,0.0796,0.0799,0.0835,0.0845,0.0893,0.0916,0.0987,0.0979,0.103,0.1087,0.1149,0.1208,0.1207,0.1312,0.1373,0.1305,0.1323,0.1405,0.1414,0.1358,0,0,0,0,0,0,0.0766,0.0781,0.0772,0.0746,0.0734,0.075,0.0775,0.0816,0.0813,0.09,0.0944,0.1014,0.11,0.1138,0.1183,0.1203,0.119,0.1374,0.1371,0.14,0.1408,0.1416,0.136,0,0,0,0,0]},{"header":{"parameterUnit":"m.s-1","parameterCategory":2,"la1":30.2991,"la2":30.254,"lo1":-89.0895,"lo2":-89.0444,"dy":0.0017,"dx":0.0017,"nx":28,"ny":28,"refTime":"2025-04-19T09:00:00:Z","depth":"4","parameterNumber":3,"parameterNumberName":"V-component_of_CURRENTS"},"data":[0,0,0,0,0,0,0,0,0,0,0,0,0,0,0,0,0,0,0,0,0,0,0,0,0,0,0,0,0,0,0,0,0,0,0,0,0,0,0,0,0,0,0,0,0,0,0,0,0,0,0,0,0,0,0,0,0,0,-0.0132,-0.0132,0,-0.015,-0.015,-0.015,-0.0162,-0.0162,-0.0162,-0.0162,-0.0181,-0.0181,-0.0181,0,0,0,0,0,0,0,0,0,0,0,0,0,-0.0093,-0.0093,-0.0132,-0.0132,-0.0132,-0.015,-0.015,-0.015,-0.0162,-0.0162,-0.0162,-0.0162,-0.0181,-0.0181,-0.0181,0,0,0,0,0,0,0,0,0,0,0,0,0,-0.0109,-0.0093,-0.0132,-0.0141,-0.0142,-0.015,-0.015,-0.0151,-0.0162,-0.0162,-0.0162,-0.0162,-0.018,-0.0181,-0.0181,-0.018,0,0,-0.0183,-0.0183,0,0,0,0,0,0,0,0,-0.0108,-0.0111,-0.0139,-0.014,-0.0142,-0.0155,-0.0143,-0.0161,-0.0162,-0.0153,-0.0162,-0.0163,-0.0172,-0.0174,-0.0175,-0.0181,-0.0182,-0.0183,-0.0183,-0.0184,-0.0184,0,0,0,0,0,0,0,-0.0107,-0.011,-0.0138,-0.014,-0.0141,-0.0139,-0.0142,-0.0146,-0.0161,-0.0154,-0.0155,-0.0159,-0.0173,-0.0175,-0.0176,-0.0182,-0.0183,-0.0183,-0.0184,-0.0184,-0.0167,-0.0167,0,0,0,0,0,0,-0.0107,-0.0109,-0.0138,-0.0139,-0.0126,-0.014,-0.0143,-0.015,-0.0161,-0.0163,-0.0158,-0.0159,-0.0174,-0.0175,-0.0176,-0.0149,-0.0184,-0.0184,-0.0184,-0.0168,-0.0167,-0.0166,0,0,0,0,0,0,-0.0107,-0.011,-0.0137,-0.0125,-0.0128,-0.0141,-0.0148,-0.015,-0.0155,-0.0164,-0.0166,-0.0162,-0.0174,-0.0176,-0.0173,-0.0151,-0.0184,-0.0185,-0.0169,-0.0168,-0.0167,-0.0111,0,0,0,0,0,0,-0.0105,-0.011,-0.0113,-0.0125,-0.0129,-0.0136,-0.0148,-0.015,-0.0157,-0.0158,-0.0168,-0.017,-0.0174,-0.0172,-0.0174,-0.0152,-0.0185,-0.017,-0.0169,-0.0167,-0.0114,-0.0108,-0.0103,0,0,0,0,0,-0.0104,-0.0105,-0.0113,-0.0116,-0.0134,-0.0136,-0.0137,-0.0147,-0.0157,-0.0153,-0.0158,-0.017,-0.0164,-0.0172,-0.0174,-0.0152,-0.0171,-0.0169,-0.0167,-0.0116,-0.0109,-0.0104,0,0,0,0,0,0,-0.0088,-0.0107,-0.0115,-0.0122,-0.0127,-0.0138,-0.0138,-0.0148,-0.015,-0.0153,-0.0163,-0.0164,-0.0153,-0.0163,-0.0172,-0.0144,-0.0168,-0.0167,-0.0129,-0.0122,-0.0117,-0.0107,-0.0186,0,0,0,0,0,-0.0087,-0.0094,-0.0108,-0.0113,-0.0116,-0.0128,-0.0132,-0.0139,-0.0144,-0.0146,-0.0151,-0.0154,-0.0147,-0.0144,-0.0145,-0.0132,-0.015,-0.0119,-0.0113,-0.0109,-0.0102,-0.0107,-0.0101,-0.0161,-0.0161,-0.0161,0,0,-0.0082,-0.0094,-0.0097,-0.011,-0.0116,-0.0106,-0.013,-0.0135,-0.0119,-0.0148,-0.013,-0.014,-0.0141,-0.0122,-0.0118,-0.0127,-0.0103,-0.0107,-0.0103,-0.0098,-0.0104,-0.0099,-0.0094,-0.016,-0.016,-0.016,0,0,-0.0068,-0.0086,-0.0082,-0.0083,-0.0093,-0.0096,-0.0097,-0.0107,-0.0105,-0.0097,-0.0105,-0.01,-0.0101,-0.0086,-0.008,-0.0048,-0.0079,-0.0053,-0.0012,-0.0017,-0.0012,-0.0008,-0.0031,-0.003,-0.0046,-0.0045,-0.0045,0,-0.0059,-0.0058,-0.008,-0.007,-0.0063,-0.0088,-0.007,-0.0067,-0.0073,-0.0061,-0.0085,-0.007,-0.0077,-0.0035,-0.0024,-0.0034,-0.0054,-0.0035,-0.001,-0.0006,-0.0003,-0.0028,-0.0027,-0.0043,-0.0043,-0.0043,-0.0043,0,-0.0037,-0.0033,-0.0029,-0.0022,-0.0016,-0.0009,-0.0007,0.0,-0.0009,-0.0006,0.0015,0.0003,0.0014,0.0015,0.0004,0.0035,0.0006,-0.0006,-0.0025,0.0007,-0.0022,-0.0022,-0.0038,-0.0039,-0.004,-0.0041,0,0,-0.0024,-0.0015,-0.0012,0.0003,0.0009,0.0018,0.0048,0.0072,0.0092,0.0085,0.0114,0.0123,0.0103,0.0108,0.0095,0.0092,0.0091,0.0053,0.0052,0.0032,0.0063,0.0043,0.004,0.0079,0.008,0.0081,0.003,0,0.0003,0.003,0.0032,0.0072,0.0088,0.009,0.0123,0.0141,0.0143,0.0163,0.0161,0.0173,0.0145,0.0142,0.014,0.01,0.0095,0.0105,0.0034,0.0032,0.0012,0.0042,0.0082,0.003,0.003,0.003,0.003,0,0.0027,0.0043,0.0081,0.012,0.0128,0.0153,0.0194,0.0219,0.0245,0.0244,0.0257,0.0241,0.0249,0.0207,0.0171,0.0174,0.0126,0.0091,0.0088,0.0051,0.0013,-0.0007,0.003,0.003,0.003,0.003,0.003,0,0.0043,0.0081,0.0113,0.0125,0.0163,0.0189,0.0212,0.0243,0.0268,0.029,0.0295,0.0301,0.0288,0.0247,0.0171,0.0167,0.0112,0.0098,0.004,0.0036,0.0043,0.0039,0.0076,0.0076,0.0076,0.0076,0.0076,0,0.0069,0.0096,0.0122,0.0139,0.0184,0.0208,0.0255,0.0274,0.0308,0.0336,0.0332,0.0341,0.0294,0.0255,0.019,0.0112,0.0127,0.0053,0.0031,0.0065,0.0065,0.0042,0.0039,0.0074,0.0075,0.0075,0.0075,0,0.0079,0.0096,0.0131,0.0173,0.0189,0.0218,0.0273,0.0302,0.0329,0.036,0.0367,0.0366,0.0317,0.0259,0.0181,0.0129,0.0059,0.0027,0.0059,0.0038,-0.002,-0.0019,-0.0034,-0.0035,-0.0035,-0.0036,-0.0037,0,0.0083,0.01,0.0142,0.0159,0.0177,0.0223,0.0253,0.0302,0.0331,0.037,0.0382,0.0358,0.0343,0.0225,0.0163,0.0053,0.0034,-0.001,0.0002,-0.0006,-0.0027,-0.0025,-0.0024,-0.0038,-0.0038,-0.0038,-0.0039,0,0.0082,0.0093,0.0116,0.0146,0.0177,0.0223,0.027,0.0298,0.0351,0.038,0.0386,0.0345,0.0294,0.022,0.0133,0.0054,0.0019,-0.0018,-0.0017,-0.0006,-0.0012,-0.0031,-0.0029,-0.0041,-0.0041,-0.0041,-0.0041,0,0.0066,0.0075,0.0093,0.0125,0.016,0.0199,0.0242,0.0282,0.032,0.0372,0.037,0.0333,0.0322,0.0219,0.014,0.0064,0.0045,0.001,0.0009,0.0012,0.0042,0.0043,0.0019,0,0,0,0,0,0.0044,0.0047,0.0068,0.01,0.0137,0.016,0.0235,0.0281,0.0342,0.0342,0.0361,0.0316,0.0224,0.0198,0.0117,0.0114,0.0022,0.0016,-0.0022,-0.0057,-0.0053,-0.0027,0,0,0,0,0,0,0.0021,0.0033,0.005,0.0066,0.0085,0.0129,0.0177,0.023,0.0246,0.0297,0.0257,0.0266,0.0183,0.0253,0.01,0.0083,0.0043,-0.0013,-0.0015,-0.0058,-0.0056,-0.0053,-0.0024,0,0,0,0,0]}]]